TimeEST,TemperatureF,Dew PointF,Humidity,Sea Level PressureIn,VisibilityMPH,Wind Direction,Wind SpeedMPH,Gust SpeedMPH,PrecipitationIn,Events,Conditions,WindDirDegrees,DateUTC
12:53 AM,28.0,19.0,69,30.46,7.0,Calm,Calm,-,N/A,,Overcast,0,2013-01-28 05:53:00
2:53 AM,28.9,19.0,67,30.42,7.0,Calm,Calm,-,N/A,,Overcast,0,2013-01-28 07:53:00
3:53 AM,28.9,19.9,69,30.39,7.0,Calm,Calm,-,N/A,,Overcast,0,2013-01-28 08:53:00
4:53 AM,28.9,24.1,82,30.36,1.2,Calm,Calm,-,0.01,Snow,Light Snow,0,2013-01-28 09:53:00
5:02 AM,28.4,24.8,86,30.31,1.2,NNW,3.5,-,0.01,Snow,Light Snow,340,2013-01-28 10:02:00
5:53 AM,30.0,25.0,82,30.35,4.0,Calm,Calm,-,0.05,Rain,Light Freezing Rain,0,2013-01-28 10:53:00
6:53 AM,30.9,26.1,82,30.36,4.0,WSW,3.5,-,0.04,Rain,Light Freezing Rain,250,2013-01-28 11:53:00
7:34 AM,30.2,26.6,86,30.28,4.0,Calm,Calm,-,0.01,Rain,Light Freezing Rain,0,2013-01-28 12:34:00
8:20 AM,30.2,26.6,86,30.29,2.0,SSW,4.6,-,0.01,Rain,Light Freezing Rain,210,2013-01-28 13:20:00
10:53 AM,33.1,28.9,85,30.28,4.0,SW,3.5,-,0.00,,Overcast,220,2013-01-28 15:53:00
11:53 AM,34.0,30.0,85,30.23,6.0,Variable,3.5,-,N/A,,Overcast,0,2013-01-28 16:53:00
12:53 PM,34.0,30.9,89,30.18,4.0,Calm,Calm,-,N/A,,Overcast,0,2013-01-28 17:53:00
2:08 PM,35.6,32.0,87,30.07,3.0,Calm,Calm,-,N/A,,Overcast,0,2013-01-28 19:08:00
3:53 PM,35.1,32.0,89,30.10,0.5,Calm,Calm,-,0.00,Fog,Fog,0,2013-01-28 20:53:00
4:53 PM,35.1,33.1,92,30.09,1.0,Calm,Calm,-,N/A,,Overcast,0,2013-01-28 21:53:00
5:02 PM,35.6,33.8,93,30.05,0.5,Calm,Calm,-,N/A,Fog,Fog,0,2013-01-28 22:02:00
5:53 PM,34.0,32.0,92,30.09,0.8,Calm,Calm,-,N/A,,Overcast,0,2013-01-28 22:53:00
6:53 PM,35.1,33.1,92,30.08,1.5,Calm,Calm,-,N/A,,Overcast,0,2013-01-28 23:53:00
7:53 PM,35.1,33.1,92,30.06,2.5,Calm,Calm,-,N/A,,Overcast,0,2013-01-29 00:53:00
9:03 PM,35.6,33.8,93,30.01,0.8,Variable,3.5,-,N/A,,Overcast,0,2013-01-29 02:03:00
9:53 PM,36.0,33.1,89,30.06,1.8,Calm,Calm,-,N/A,,Overcast,0,2013-01-29 02:53:00
10:07 PM,35.6,33.8,93,30.01,2.0,Calm,Calm,-,N/A,,Overcast,0,2013-01-29 03:07:00
10:29 PM,37.4,35.6,93,30.01,4.0,Calm,Calm,-,N/A,,Overcast,0,2013-01-29 03:29:00
10:40 PM,37.4,33.8,87,30.02,2.0,Calm,Calm,-,N/A,,Overcast,0,2013-01-29 03:40:00
10:53 PM,37.0,34.0,89,30.06,2.0,Calm,Calm,-,N/A,,Overcast,0,2013-01-29 03:53:00
11:20 PM,41.0,37.4,87,30.02,4.0,Calm,Calm,-,N/A,,Overcast,0,2013-01-29 04:20:00
11:53 PM,48.9,42.1,77,30.05,8.0,Calm,Calm,-,N/A,,Overcast,0,2013-01-29 04:53:00